Location: Madrid
(40.4000°N, 3.6830°W)
Time: 19:01:56
(UTC+02:00)

ISS - Pass Details

Date: 18 September 2020
Orbit: 419 x 421 km, 51.6° (Epoch: 30 September)

Event Time Altitude Azimuth Distance (km) Brightness Sun altitude
Rises 23:10:18 0° 277° (W) 2,362 0.9 -31.8°
Reaches altitude 10° 23:12:53 10° 297° (WNW) 1,500 -0.1 -32.2°
Enters shadow 23:13:00 11° 299° (WNW) 1,467 -0.2 -32.2°
